GFSCGP_925_rhum_108.txt.gz
RH
32 25 28 14 18 18 19 18 19 16 13 20 27 31 26 26 26 25 26 26 24 21 30 51 71 80 83 76 72 76 87 88 88 92 94 100 100 97 100 100 100 98 99 100
40 48 29 22 19 17 16 16 16 14 14 19 24 23 17 28 28 26 27 25 21 22 59 69 84 86 86 86 77 81 86 88 90 90 91 98 100 95 96 99 99 100 100 100
43 38 30 30 28 20 18 18 17 19 19 19 26 28 27 26 31 29 26 22 19 19 62 73 86 95 97 95 88 86 89 90 86 90 90 91 97 100 100 100 100 100 100 100
35 28 32 33 33 29 35 24 24 27 29 34 26 36 26 22 25 28 25 21 18 33 55 66 78 96 96 96 86 87 90 86 85 91 90 91 94 97 99 100 100 100 100 98
30 18 28 30 28 25 28 25 28 30 34 32 31 40 25 26 24 22 21 18 16 18 51 64 74 83 94 92 88 90 93 87 87 89 86 84 86 88 86 95 100 100 100 100
29 22 21 21 17 18 19 26 31 32 38 47 34 39 31 31 26 22 18 17 16 18 48 58 67 86 94 93 91 93 96 95 88 88 88 88 93 97 100 99 99 100 100 100
31 28 23 20 24 21 24 37 56 59 59 48 31 39 32 27 23 25 26 26 28 25 43 64 88 88 94 96 96 94 92 99 91 90 93 97 99 99 99 99 100 96 100 100
44 47 26 18 24 26 28 29 47 61 61 47 34 50 50 31 32 44 43 40 34 27 39 65 79 82 88 92 94 93 97 100 96 89 96 96 100 100 100 100 100 100 100 100
47 43 29 26 28 25 27 41 28 44 51 60 51 39 30 25 58 55 53 46 38 58 58 67 75 82 85 89 92 96 93 96 91 89 97 95 94 98 99 100 100 100 100 100
28 45 28 24 24 36 32 27 34 50 64 56 57 54 52 53 68 63 63 58 46 45 56 63 69 83 84 87 91 94 88 92 88 91 95 93 97 98 97 98 99 100 100 100
21 33 37 27 37 42 59 60 64 40 61 55 74 62 67 70 68 73 83 64 53 47 45 58 61 78 83 88 92 95 87 86 85 90 94 95 100 98 98 97 97 98 98 99
28 31 35 32 23 25 45 58 65 90 69 74 62 51 26 60 60 73 84 61 45 35 39 59 58 74 85 88 92 94 88 86 85 86 95 95 99 100 96 94 95 96 99 100
27 41 66 34 30 44 56 43 38 75 92 86 83 53 36 40 63 70 79 76 48 46 42 49 66 70 81 84 88 90 89 87 86 89 95 96 97 96 99 97 96 97 97 98
38 45 46 53 57 44 38 33 33 72 94 89 76 73 45 40 51 66 67 71 52 53 42 46 74 76 81 80 84 87 88 87 88 90 98 100 99 96 96 98 99 98 95 95
43 53 49 46 42 38 38 37 32 34 42 77 56 46 30 35 46 55 62 68 49 46 39 45 61 72 81 83 81 82 86 88 88 87 82 96 95 93 89 96 97 94 96 95
64 64 49 54 46 43 48 41 37 32 30 29 30 34 23 39 32 44 43 54 61 69 69 72 53 62 71 76 82 80 82 86 88 88 88 82 88 89 87 83 89 92 93 94
67 67 70 62 54 57 64 46 40 34 28 28 34 32 64 64 49 67 77 73 75 72 72 77 78 74 81 65 72 79 80 81 86 89 89 88 84 88 89 85 85 89 91 94
72 74 79 82 68 77 37 37 38 35 30 38 56 72 70 62 75 70 70 74 79 76 78 84 85 82 81 85 68 74 75 78 84 86 88 90 90 90 88 90 95 100 99 97
63 72 94 89 83 56 45 39 59 64 51 80 81 78 70 64 75 78 76 73 82 81 83 86 86 86 88 94 86 75 78 78 80 82 85 88 89 94 98 100 100 100 100 100
57 63 74 96 88 87 56 51 43 53 82 80 77 78 73 66 87 75 82 79 79 80 82 86 86 88 93 100 96 80 82 82 93 89 89 88 96 100 100 100 100 100 100 100
95 82 87 80 91 81 50 36 37 91 84 75 67 69 72 72 71 65 84 82 79 82 84 87 91 93 95 100 100 99 100 100 100 100 100 100 100 100 100 100 100 99 99 100
97 96 92 84 94 86 62 74 63 76 64 63 62 60 67 71 83 89 85 87 86 90 86 88 91 93 94 99 100 99 98 100 100 100 100 100 100 100 100 100 100 100 100 100
97 99 87 78 73 63 75 79 84 76 60 55 52 52 67 90 94 88 88 90 87 85 87 90 92 94 96 99 100 99 100 100 100 100 100 100 100 100 100 100 100 100 100 99
100 97 99 81 89 92 84 74 66 60 49 43 47 69 83 96 91 89 87 87 88 89 90 90 92 94 97 99 100 100 100 100 100 100 100 100 100 100 100 100 100 100 99 97
97 100 100 96 98 92 77 83 71 65 55 53 80 87 90 87 91 91 94 93 91 92 94 94 94 95 97 100 100 100 100 100 100 100 100 100 100 100 100 100 100 100 99 95
77 82 82 96 91 87 74 65 66 61 64 78 80 84 83 83 89 88 92 92 94 96 96 98 99 98 99 100 100 100 100 99 98 97 98 99 98 99 97 97 99 99 96 97

GFSCGP_925_rhum_111.txt.gz
RH
28 22 24 17 18 21 22 24 26 20 16 15 16 18 16 17 27 31 28 23 24 26 24 26 56 73 86 84 81 80 86 90 92 98 98 100 99 99 98 99 99 98 100 100
30 47 28 16 16 18 19 22 21 17 13 18 19 19 17 21 20 26 28 27 27 23 29 60 85 90 84 92 88 85 87 91 91 83 99 98 98 99 99 98 99 94 94 97
24 29 30 35 32 26 24 23 22 19 17 19 23 26 25 22 26 29 31 28 26 26 26 62 92 94 92 95 92 90 88 90 91 87 99 100 99 98 100 99 100 100 100 99
28 24 28 39 40 34 42 24 21 21 32 38 26 38 25 24 24 23 24 22 26 27 29 57 87 96 96 94 92 90 89 89 92 94 94 95 98 98 98 99 100 100 100 100
33 24 39 34 33 33 36 30 34 34 36 36 34 46 28 26 24 24 22 21 24 23 35 65 80 87 92 95 95 92 91 91 93 94 93 91 92 93 99 99 100 100 100 100
26 21 23 24 20 26 22 24 30 37 42 52 31 41 29 30 26 25 22 21 40 37 31 50 65 84 94 100 99 95 97 96 82 84 92 88 86 90 94 99 100 100 100 100
32 32 26 23 27 24 24 35 46 48 62 48 31 43 30 28 25 31 51 51 49 46 43 39 67 91 96 99 100 100 100 94 90 91 87 88 82 82 80 88 94 100 100 100
47 44 32 24 27 30 31 37 52 42 50 40 36 53 40 31 39 58 54 58 54 53 47 51 63 86 93 96 99 99 100 99 94 90 85 83 84 82 83 89 90 97 97 99
47 44 28 24 25 29 34 37 28 38 40 60 45 41 30 37 58 59 62 70 64 59 52 49 72 84 88 95 98 98 99 98 98 83 89 84 87 93 99 97 95 98 100 100
37 49 27 23 28 34 44 39 38 54 60 49 47 54 55 45 65 63 69 79 74 63 56 49 78 84 88 90 97 98 98 98 99 83 93 99 95 99 99 99 99 100 100 100
25 36 39 28 35 32 49 69 70 68 61 65 54 47 56 66 69 76 76 75 76 71 65 57 56 80 82 89 97 99 100 100 99 86 84 98 98 97 100 100 99 99 100 100
28 33 37 29 28 27 47 75 82 86 88 82 89 72 45 45 74 73 76 63 74 78 68 52 49 86 92 94 95 98 98 100 98 92 88 94 94 88 100 100 100 100 100 100
36 40 41 29 45 44 52 42 37 71 88 76 92 73 38 39 38 70 77 72 82 84 65 55 48 88 92 92 96 97 96 95 94 94 84 94 99 97 100 100 100 100 100 100
45 44 35 41 50 44 38 34 30 64 90 64 68 57 48 36 33 59 66 71 78 81 70 66 70 88 90 92 93 93 94 93 94 93 87 93 100 100 100 100 100 99 100 99
54 49 45 46 44 41 42 47 42 43 48 63 37 46 38 31 37 41 58 62 70 78 81 75 76 87 90 91 92 92 92 92 96 98 94 90 91 90 96 100 100 100 100 100
62 67 56 58 49 48 57 52 50 48 43 40 36 34 22 29 40 43 54 59 68 79 81 76 75 76 77 82 91 91 92 91 94 98 98 97 99 96 97 100 100 100 99 100
68 72 70 53 54 58 55 43 49 42 36 38 43 30 42 67 62 59 69 70 81 82 82 82 82 80 82 83 83 91 92 94 93 93 89 93 100 100 97 98 100 100 100 100
74 76 80 82 62 68 38 36 36 46 41 47 33 44 74 70 80 79 79 81 82 82 83 83 82 81 85 90 92 80 90 94 95 94 92 92 99 100 97 97 100 100 100 100
72 74 90 84 76 44 37 29 52 80 80 74 52 77 72 72 85 82 79 83 83 82 81 82 85 86 92 98 100 89 91 94 95 96 95 92 92 98 100 100 100 100 100 100
70 74 76 99 89 73 45 51 46 58 90 88 83 85 80 76 96 81 83 82 81 79 83 84 89 92 94 99 100 96 94 92 93 98 94 94 95 99 100 99 99 100 100 100
96 96 93 81 90 72 50 43 52 83 97 78 78 73 71 77 74 74 81 83 81 84 87 90 94 96 95 100 100 99 100 100 100 99 100 100 100 100 100 100 100 100 100 100
97 97 96 94 92 85 60 66 75 79 76 73 72 60 62 86 85 88 88 89 87 90 89 90 90 93 97 100 100 99 98 100 100 100 100 100 100 100 100 100 100 100 100 100
97 98 93 76 75 68 88 86 83 89 75 58 55 50 70 94 85 85 87 84 88 88 89 90 92 95 98 100 100 99 100 100 100 100 100 99 100 100 100 99 100 100 100 100
98 100 100 92 90 90 88 83 84 80 71 56 68 93 92 93 88 88 87 88 89 90 93 90 93 97 99 100 100 100 100 100 100 100 100 100 100 100 100 100 99 98 98 99
99 99 99 100 99 96 81 72 68 60 70 74 84 86 88 90 90 88 89 89 90 93 96 95 96 98 100 100 100 100 100 99 100 100 100 100 100 100 100 100 100 100 100 94
92 70 97 98 81 97 93 74 74 84 88 86 84 88 86 84 88 86 92 93 96 96 98 99 98 98 100 100 100 100 100 99 98 97 98 99 99 100 99 99 100 99 99 100

GFSCGP_925_rhum_114.txt.gz
RH
25 27 28 21 18 20 24 27 28 23 18 17 18 18 16 15 16 21 24 26 26 24 22 23 25 33 57 74 85 84 89 89 81 90 100 100 100 99 99 99 98 100 100 97
25 46 32 17 16 20 22 24 25 18 16 18 18 19 18 18 19 20 20 27 28 29 23 22 34 70 84 90 91 91 90 82 83 96 99 99 99 99 99 99 100 99 100 100
23 23 27 29 24 21 23 23 23 21 18 20 23 30 23 23 22 24 27 30 32 28 24 24 36 86 91 97 98 98 93 79 88 100 99 94 100 100 100 100 100 99 99 99
25 20 19 38 39 30 37 29 27 30 30 44 26 44 25 25 24 22 23 24 25 26 31 27 38 90 94 97 98 97 92 92 92 96 100 95 98 97 99 99 100 95 100 94
27 34 30 23 29 37 46 33 33 32 39 40 38 42 32 21 23 22 24 25 32 52 51 48 44 80 88 94 98 96 99 100 96 98 100 100 100 97 96 99 100 100 97 99
23 23 31 34 31 30 28 30 30 40 44 56 38 37 26 26 24 27 30 50 58 60 57 52 46 60 92 97 98 100 100 100 96 99 98 96 97 98 100 100 100 100 100 100
32 30 27 24 28 26 26 34 41 34 62 46 35 43 27 25 26 51 63 65 68 64 60 58 55 69 96 99 100 100 99 100 100 99 98 95 95 95 97 100 100 100 100 100
49 44 35 28 29 32 35 36 50 40 43 34 39 49 38 29 46 56 61 70 70 71 62 60 58 57 91 92 98 98 98 100 100 100 91 90 92 89 91 94 99 99 100 99
56 46 28 25 29 31 37 40 32 39 38 54 42 38 28 40 57 61 62 71 79 71 67 60 58 54 90 93 95 98 97 97 99 92 90 89 89 86 81 81 86 88 93 98
42 56 31 24 35 27 39 47 43 55 57 51 44 48 45 68 72 70 71 74 70 58 65 60 56 55 54 92 93 97 98 93 98 94 91 92 87 78 79 88 97 99 96 96
33 38 39 29 32 31 44 60 68 65 70 75 80 47 57 57 74 77 76 73 76 67 79 69 59 58 58 91 95 99 100 93 93 96 90 95 87 85 83 91 93 100 100 99
36 42 45 31 38 37 63 75 78 81 92 84 86 80 44 40 45 48 78 74 76 74 71 73 72 67 86 94 98 100 99 98 95 90 92 97 94 91 91 98 98 97 100 100
48 50 43 41 45 38 50 38 60 77 86 84 91 67 40 34 30 33 72 73 81 78 70 69 75 76 94 96 95 98 100 97 98 97 90 97 100 97 93 96 99 97 100 100
52 52 44 43 43 40 34 36 36 71 92 66 69 48 29 32 34 28 33 68 77 79 73 78 82 79 79 96 97 95 99 98 96 99 97 91 100 99 95 93 98 100 99 99
56 54 45 46 44 44 42 45 46 47 51 63 34 34 26 26 23 26 24 60 68 70 72 80 85 84 80 82 98 98 98 96 92 99 94 86 95 97 94 99 100 100 100 100
58 63 60 59 50 52 56 56 56 54 47 46 42 42 27 25 23 24 41 60 68 70 70 77 88 81 82 82 86 98 99 98 95 97 92 85 99 100 98 100 100 100 100 100
67 65 72 57 54 55 54 44 47 47 47 46 52 39 31 32 34 72 71 80 82 81 79 85 89 85 88 89 95 91 98 97 99 100 95 88 95 100 99 100 100 100 100 100
73 80 79 79 65 72 32 36 34 44 41 40 38 36 48 45 78 85 85 87 86 84 82 83 86 85 88 96 97 100 93 99 99 100 95 97 98 99 98 100 100 100 100 100
76 76 89 85 82 48 40 30 44 78 70 62 63 63 56 72 86 87 87 84 86 84 82 81 87 89 93 94 99 100 98 99 98 98 100 97 89 100 100 100 100 100 100 100
84 74 75 89 88 79 41 44 62 74 73 82 95 91 81 76 93 90 89 80 82 81 84 85 89 92 93 96 100 100 100 100 100 99 98 97 100 100 100 99 100 99 100 100
96 97 93 91 95 68 47 40 49 78 74 94 84 86 80 84 88 87 80 84 82 85 89 89 88 90 96 99 100 100 100 100 100 100 100 100 100 100 100 100 100 100 100 100
97 97 97 96 95 85 80 81 85 94 88 85 86 81 76 91 84 87 86 86 89 90 87 88 89 94 98 100 100 99 99 100 100 100 100 99 100 100 100 100 100 100 100 100
97 98 96 91 75 86 90 88 88 81 91 84 65 62 86 91 83 89 87 87 87 87 90 89 92 96 99 100 100 100 100 100 100 100 100 100 100 100 100 100 100 100 100 100
96 100 99 100 91 94 90 84 78 90 94 81 96 93 92 91 88 90 85 87 90 90 94 92 94 97 98 100 100 100 100 100 99 100 100 100 99 100 99 98 98 98 99 98
98 100 95 99 100 93 80 81 80 86 82 87 84 89 90 90 88 86 90 91 91 94 97 96 97 98 99 100 100 100 100 100 100 100 100 99 99 100 100 100 100 100 99 96
84 99 99 98 99 100 98 92 82 87 88 83 84 90 82 82 86 85 91 92 95 96 96 95 96 96 99 100 100 100 100 97 99 99 99 99 100 100 100 100 100 98 96 92

GFSCGP_925_rhum_117.txt.gz
RH
22 24 26 21 19 14 21 26 25 23 18 18 18 18 15 12 13 15 16 16 18 19 18 19 24 26 33 52 68 83 93 100 100 100 100 100 100 98 99 99 98 98 94 95
29 38 28 18 17 18 19 22 24 22 17 20 17 18 17 16 16 16 17 18 20 21 20 26 33 34 49 66 84 91 94 100 100 100 100 99 99 99 100 100 99 92 96 99
23 23 25 24 20 20 20 23 23 19 17 19 22 23 22 20 18 20 21 22 21 22 40 41 42 44 56 71 90 95 96 100 100 99 100 100 95 98 100 100 100 98 100 99
24 19 20 28 31 24 29 20 18 18 29 33 26 28 22 21 22 21 20 24 34 46 46 44 46 45 54 65 87 94 99 100 100 100 96 96 96 96 99 99 98 99 100 100
30 30 24 22 22 26 26 32 25 29 33 34 33 34 26 22 17 20 23 37 48 51 50 49 49 50 56 77 90 96 100 99 100 100 98 93 97 95 99 99 98 100 100 100
27 23 29 22 20 26 33 34 34 38 38 41 31 26 21 19 22 24 40 48 56 55 52 48 49 48 52 92 99 100 100 100 99 100 99 96 94 96 98 99 100 98 100 100
30 22 22 26 29 30 30 32 36 43 48 28 29 34 24 24 34 50 52 52 56 50 47 48 49 49 51 72 96 97 100 98 100 99 100 99 99 99 96 98 99 100 100 100
47 48 30 26 26 29 35 32 30 25 27 23 35 30 30 49 51 50 51 54 50 45 45 47 50 51 52 58 82 96 97 98 100 99 100 100 100 98 98 99 100 97 100 100
45 49 28 27 30 27 37 38 26 27 37 41 34 32 38 46 46 39 40 50 54 53 51 55 56 56 62 63 64 92 96 97 100 100 100 100 100 95 93 97 99 100 99 95
31 40 33 31 31 33 38 36 42 44 48 45 36 36 42 42 39 32 32 43 53 53 56 59 60 61 68 76 70 91 95 98 100 100 99 97 98 96 90 85 91 94 97 99
34 38 34 30 46 42 42 52 62 51 60 38 39 35 45 42 39 27 23 27 47 58 60 56 57 60 61 75 84 96 99 98 100 99 96 94 98 91 86 79 82 96 97 100
36 45 47 35 42 44 59 73 68 56 68 70 60 46 40 39 30 25 24 23 39 59 62 57 58 54 62 68 90 98 100 98 99 95 94 94 89 85 84 85 90 98 99 98
44 53 54 58 47 38 38 30 59 66 64 70 63 35 39 26 20 19 22 23 26 63 58 56 56 61 66 70 80 100 100 97 98 98 94 93 95 84 88 87 90 96 99 100
51 44 48 60 52 38 38 33 32 55 51 48 42 34 21 20 20 19 19 20 24 60 60 58 60 70 75 76 80 94 100 100 99 98 87 93 97 88 92 89 88 95 98 100
50 46 39 36 37 40 40 36 35 36 31 35 25 25 20 18 18 19 21 23 24 51 58 59 71 76 85 80 82 89 99 100 100 99 92 92 99 89 94 91 94 99 100 100
56 46 51 52 42 37 44 42 45 42 39 39 35 36 25 22 23 24 25 29 49 61 69 75 77 80 87 84 87 91 98 100 100 99 95 95 98 99 98 93 97 100 100 100
60 55 48 44 36 42 51 39 38 36 34 36 36 26 21 28 25 27 34 50 70 73 75 76 79 84 84 89 94 97 99 100 100 99 94 95 98 100 100 95 100 100 100 100
63 66 61 58 54 60 30 31 32 35 32 33 35 33 32 34 32 34 67 77 82 80 79 77 78 80 82 89 97 100 100 99 100 98 94 98 97 100 100 100 100 100 100 100
71 66 71 71 59 40 34 26 26 33 34 46 58 66 72 69 50 60 80 77 79 78 78 78 82 86 86 88 98 100 99 100 100 99 95 94 94 100 100 100 100 100 100 100
73 76 71 77 74 73 33 51 47 53 49 80 88 95 87 74 74 59 83 79 77 76 82 83 83 84 88 94 99 99 99 100 100 100 96 95 97 100 100 100 100 100 100 100
95 96 92 84 91 70 44 60 48 46 66 83 96 98 83 91 85 88 82 82 79 84 84 85 86 89 95 97 99 98 99 99 100 100 100 100 100 100 100 100 100 100 100 100
96 95 95 93 94 84 79 63 72 80 83 94 94 85 84 89 88 86 81 82 83 86 86 86 90 94 97 98 99 98 98 100 98 99 100 100 100 100 100 100 100 100 100 100
95 97 94 92 66 72 77 79 78 87 86 86 87 91 94 89 85 85 82 82 84 88 92 90 92 95 97 99 100 99 100 100 99 99 98 100 100 100 100 100 100 100 100 100
81 94 99 98 93 94 87 79 75 79 86 82 83 87 86 88 86 82 79 83 84 90 94 90 91 94 96 98 100 100 100 99 97 97 97 98 100 100 100 99 99 100 100 100
95 97 96 94 100 96 95 98 87 84 82 83 82 82 84 82 86 85 88 88 86 89 90 88 89 91 96 97 99 100 100 100 100 100 98 100 98 100 100 98 99 97 100 95
90 97 98 98 99 100 100 100 100 92 90 86 83 81 78 79 85 84 89 89 91 91 93 91 88 90 94 96 100 100 100 98 98 98 100 99 99 97 99 100 100 98 96 94

GFSCGP_925_rhum_120.txt.gz
RH
18 17 18 13 14 13 12 11 12 10 12 15 14 14 12 11 10 9 9 10 11 12 11 12 21 28 35 36 36 42 44 53 68 81 88 98 99 100 99 100 100 99 99 100
21 22 10 8 11 15 15 14 12 10 12 18 15 12 9 8 10 9 10 11 12 13 14 20 26 31 36 43 49 52 55 64 71 84 92 95 97 98 100 100 100 98 99 96
18 14 15 19 22 20 18 17 15 14 11 12 13 12 10 9 10 11 13 13 15 19 26 28 32 34 38 42 51 54 55 66 77 72 90 87 96 98 100 99 99 96 96 97
16 14 15 19 26 24 26 15 15 15 19 18 11 18 14 13 13 14 13 16 23 29 31 31 31 33 37 50 62 60 61 69 91 82 90 86 87 86 88 93 100 99 99 100
21 21 20 22 18 17 22 17 24 26 21 18 15 22 12 13 16 14 17 28 33 37 36 30 29 33 35 51 69 69 68 89 92 92 81 82 74 70 81 98 100 100 99 96
27 20 18 19 15 16 16 22 29 28 24 32 21 20 13 14 13 15 28 36 36 32 30 29 29 32 36 43 63 84 82 89 96 96 84 79 73 74 86 98 91 98 100 99
24 25 21 21 22 27 22 31 38 43 39 33 12 16 14 12 21 29 37 36 34 33 34 32 34 36 42 49 50 68 90 89 100 99 91 83 78 78 82 87 89 92 100 100
28 39 31 22 29 29 32 32 33 43 33 24 18 20 22 35 35 34 33 35 37 35 34 33 36 42 47 54 58 56 67 90 97 99 100 92 84 82 90 86 84 94 98 100
31 27 28 30 34 26 36 49 27 31 27 27 20 35 41 34 28 25 26 28 34 35 36 34 33 41 46 53 65 64 61 78 94 100 100 98 95 80 78 82 88 95 98 95
29 40 24 34 45 41 36 28 34 34 43 31 17 24 25 35 23 14 11 12 19 26 30 33 33 37 38 46 59 77 74 78 88 98 99 97 90 79 82 84 91 97 100 100
22 35 29 26 55 78 79 54 51 41 30 33 29 21 23 30 26 19 15 13 13 19 27 33 36 35 36 45 53 68 86 91 90 98 99 94 86 83 88 95 95 98 95 97
23 33 42 31 28 38 51 93 96 81 50 35 31 29 25 32 28 16 16 13 15 14 27 32 35 37 40 48 54 65 87 98 97 96 98 96 86 78 84 85 86 88 85 89
40 34 38 27 37 52 58 37 45 63 70 52 47 31 29 31 22 14 14 13 14 14 25 30 34 40 48 54 58 66 82 95 99 99 96 96 89 79 82 80 87 98 98 98
46 35 39 39 61 46 44 52 37 35 51 46 36 25 22 17 13 12 13 13 16 16 22 30 38 44 48 53 65 70 88 88 100 100 99 97 85 75 76 82 96 97 96 98
37 38 26 24 24 26 37 41 33 34 28 34 28 21 15 13 13 13 14 14 17 20 23 36 45 51 54 62 70 78 92 92 100 100 100 94 77 81 82 90 97 97 99 98
34 43 33 33 26 28 34 27 26 25 26 23 21 23 14 12 12 15 17 16 21 27 40 50 54 55 61 66 77 89 94 96 99 100 99 86 82 86 86 91 99 99 99 99
56 46 43 44 25 25 34 26 24 22 19 22 28 18 13 15 16 19 20 20 32 44 59 59 59 60 63 68 78 91 99 100 100 100 99 88 80 82 88 93 98 100 100 100
63 56 51 55 40 57 22 16 21 24 21 16 17 17 17 20 24 31 29 28 49 64 61 59 59 63 67 72 78 92 99 100 100 100 100 91 83 83 86 94 100 100 100 100
43 57 62 64 44 29 24 22 23 23 23 17 20 30 35 48 54 41 44 62 64 63 62 61 64 69 72 79 86 94 95 98 99 99 100 94 88 88 95 100 100 100 100 100
67 63 61 53 69 60 34 31 29 32 42 54 62 76 88 91 86 78 73 69 70 68 69 68 71 74 80 88 90 94 94 99 98 100 100 97 90 97 100 100 100 100 100 100
87 95 89 70 87 55 36 41 38 58 67 65 83 98 100 98 95 89 80 78 72 74 73 76 77 82 90 92 92 93 95 98 100 100 98 100 99 100 100 100 100 100 100 100
92 92 90 81 88 83 51 45 75 68 68 82 92 96 96 89 87 84 73 74 74 75 77 78 80 85 89 94 94 91 96 100 99 98 100 100 100 100 100 100 100 100 100 100
90 96 94 92 79 74 73 81 66 64 82 90 92 82 83 83 80 73 74 76 75 78 79 76 77 80 87 92 96 96 99 100 100 99 100 99 100 100 100 100 100 100 100 100
79 86 100 96 96 93 100 95 96 81 87 80 81 75 74 79 80 80 78 78 75 74 72 72 71 73 81 92 96 100 100 100 100 98 98 99 98 100 100 100 100 100 100 100
95 93 88 96 90 92 92 99 100 99 99 98 70 68 72 70 76 78 81 80 76 74 74 72 74 72 78 92 96 100 100 100 100 99 99 99 99 96 100 100 100 100 100 100
80 97 94 93 99 100 100 100 100 100 99 91 74 70 67 66 70 70 74 79 83 82 80 80 80 78 78 90 97 100 100 100 100 98 100 99 100 100 97 99 100 99 98 94

GFSCGP_925_rhum_123.txt.gz
RH
17 15 15 12 12 12 12 12 13 11 8 10 11 12 12 10 10 12 10 10 8 7 7 8 10 17 23 26 31 29 31 34 32 38 54 64 79 98 100 98 85 95 93 99
14 20 14 10 10 11 12 14 14 11 8 9 12 13 10 8 9 9 9 8 7 8 9 10 16 22 27 30 34 39 39 40 41 40 51 59 86 99 95 94 91 85 90 98
16 12 11 14 14 11 10 13 15 14 10 10 12 14 12 8 6 6 7 7 7 10 12 17 21 23 30 34 47 46 40 41 48 48 57 87 97 95 99 97 96 92 95 91
19 12 13 13 16 15 20 14 13 15 18 21 13 17 10 8 7 8 8 9 11 15 20 20 20 22 27 36 52 53 49 46 52 59 68 90 94 90 94 95 96 90 90 88
20 19 18 20 17 14 19 15 17 18 22 20 15 15 12 10 12 11 11 12 16 23 24 22 22 23 26 37 44 61 59 55 62 70 68 83 90 80 82 80 90 95 87 87
14 13 18 20 16 16 17 22 19 22 27 33 23 18 14 13 13 11 12 19 24 24 25 23 23 26 26 38 46 46 63 66 82 88 87 86 86 74 68 72 84 86 90 94
10 12 14 15 23 19 18 26 48 44 50 52 20 18 15 12 9 10 17 28 26 26 27 25 25 28 31 38 47 49 45 63 79 90 92 94 86 78 68 77 85 89 100 99
21 18 19 28 24 26 23 26 44 57 50 35 21 26 18 11 21 23 24 26 28 27 27 26 25 28 31 36 43 56 48 49 71 87 92 93 90 80 69 72 76 78 95 99
26 21 14 26 33 33 30 46 27 40 35 41 28 22 28 26 28 27 24 24 29 29 27 24 24 27 30 29 36 56 62 51 71 83 89 94 93 84 71 68 79 75 94 99
24 32 17 15 34 30 63 35 61 64 84 61 29 25 32 32 27 23 19 17 16 16 19 20 23 25 27 31 38 49 63 63 67 77 89 98 98 89 75 75 79 84 82 97
21 22 18 15 27 46 61 67 38 47 59 46 39 26 19 30 22 17 14 14 12 11 11 16 23 26 29 34 41 50 58 70 79 81 86 96 99 96 83 76 80 84 89 91
22 41 31 21 20 34 45 57 98 94 50 42 35 34 32 24 18 19 17 14 12 12 10 11 21 25 30 38 44 47 58 63 80 90 88 91 92 99 86 82 77 83 86 94
41 37 51 29 15 40 57 56 58 72 89 87 64 58 35 33 23 16 12 11 11 12 12 9 16 22 28 37 46 51 56 67 76 89 95 92 96 100 91 85 83 87 84 83
39 42 40 41 28 68 43 67 48 44 62 58 78 75 71 70 25 11 10 10 10 11 12 12 14 23 28 40 51 58 65 69 80 94 100 96 97 98 88 81 83 86 84 82
38 47 41 29 20 17 19 24 34 46 47 50 31 34 52 23 13 12 10 11 12 11 14 17 22 32 41 47 51 56 69 72 84 93 96 98 96 97 84 82 82 91 90 88
32 74 42 36 24 21 19 18 22 27 30 30 27 24 15 13 10 10 11 12 14 14 17 24 35 40 47 51 55 58 70 81 89 96 87 99 97 96 84 84 89 90 92 95
53 51 45 48 28 29 28 18 16 18 18 25 26 20 13 12 11 13 18 19 20 17 39 40 46 48 52 55 59 65 73 80 94 96 91 94 98 94 87 89 90 91 97 100
52 50 50 60 44 58 23 13 14 18 17 16 15 12 11 14 24 29 27 25 25 41 47 47 50 51 54 58 68 77 78 83 90 96 95 94 100 94 81 89 94 100 100 100
29 42 55 70 59 47 29 39 29 30 27 16 18 18 23 39 50 36 53 52 56 59 54 53 54 57 59 69 77 80 83 84 87 94 96 98 100 87 82 94 100 100 100 100
69 78 77 57 86 65 53 29 26 29 46 45 54 57 61 67 93 76 78 67 66 62 62 61 60 64 70 78 83 80 83 87 88 97 100 96 98 85 92 99 100 100 100 100
72 75 92 68 83 48 71 42 35 65 80 68 72 93 98 98 96 95 90 79 74 64 66 64 63 69 76 80 84 82 82 90 98 100 100 99 96 100 99 100 100 100 100 100
92 88 73 85 84 90 89 54 96 90 62 83 88 95 100 97 92 77 70 76 66 64 62 59 58 62 72 80 86 83 84 95 99 100 99 100 100 100 100 100 100 100 100 100
89 96 94 96 93 97 95 100 98 95 93 94 98 96 70 71 69 69 72 69 64 59 56 55 56 57 63 73 86 89 93 98 100 100 99 100 98 100 100 100 100 100 100 100
90 87 97 96 86 94 100 96 99 100 98 99 93 66 63 70 67 68 65 61 58 57 57 58 60 60 62 71 81 94 98 99 99 100 99 99 96 98 100 100 100 100 100 100
83 83 84 96 83 70 76 100 100 100 96 94 90 63 63 62 66 64 67 65 63 64 65 67 68 69 68 72 82 95 100 100 99 98 100 100 97 96 99 100 100 100 100 100
63 91 91 88 90 92 99 99 72 89 78 70 68 66 61 61 66 67 70 73 77 77 76 77 79 80 79 77 84 98 100 100 99 98 98 98 99 99 98 99 100 98 97 100

GFSCGP_925_rhum_126.txt.gz
RH
13 21 21 13 13 14 14 15 15 12 10 12 20 18 15 11 11 13 13 14 12 12 9 8 9 11 18 21 25 28 28 26 27 31 54 67 95 97 97 89 75 94 81 86
14 18 15 15 13 12 13 15 16 13 11 13 14 19 15 12 11 11 10 13 12 11 9 9 11 17 22 26 29 30 35 36 37 36 34 52 64 86 98 96 82 81 94 84
18 15 12 12 13 16 17 16 15 13 11 12 16 20 17 11 9 10 10 8 10 10 9 13 23 22 28 30 43 46 46 45 39 41 40 45 65 85 100 100 94 75 94 79
13 14 14 14 15 13 17 13 15 15 16 20 14 25 18 13 12 11 10 9 10 11 15 20 24 24 27 38 42 52 57 52 44 45 48 66 87 94 96 96 93 79 88 95
11 10 12 15 16 15 18 14 15 18 22 22 21 26 22 14 14 12 10 10 12 16 22 23 22 24 24 40 44 46 57 60 54 61 60 71 89 88 92 92 94 87 90 87
8 8 10 11 11 14 15 17 19 21 27 37 27 26 24 18 13 14 12 12 18 27 26 22 25 24 29 40 44 51 50 59 63 76 74 80 86 89 90 89 95 94 89 91
8 11 10 9 13 19 19 23 35 62 54 50 26 30 26 17 14 16 12 17 27 28 31 28 27 28 30 36 42 48 53 48 65 77 77 79 87 84 77 84 90 95 94 91
11 18 12 24 30 40 34 48 45 42 46 39 27 41 26 16 14 19 15 26 27 29 29 27 25 28 29 30 34 48 54 58 62 76 77 82 91 93 85 88 83 81 87 87
22 22 13 12 16 26 51 51 40 55 38 42 46 30 22 20 17 26 27 28 29 30 30 26 24 27 28 28 36 48 52 59 63 70 71 81 92 95 91 86 78 78 91 86
19 30 17 14 12 18 36 37 65 68 78 59 38 34 40 33 25 28 30 29 30 27 23 21 22 25 26 30 38 45 51 59 63 74 76 73 86 93 92 87 84 70 84 86
20 28 32 24 16 17 45 54 45 60 87 55 53 33 28 49 60 36 27 20 18 16 14 14 20 23 25 33 38 44 54 58 64 72 83 84 86 90 92 90 81 77 80 91
20 39 46 30 18 23 27 92 98 85 88 67 54 47 32 36 53 54 16 15 16 13 13 13 13 20 24 31 36 46 54 61 68 71 81 89 90 90 92 98 90 83 81 92
36 71 82 50 30 29 57 50 50 81 90 83 94 56 47 46 46 28 20 15 12 12 12 13 13 13 21 27 48 51 60 68 69 75 83 93 92 94 94 100 89 86 87 83
54 41 41 50 37 62 41 35 30 60 76 63 53 65 93 87 71 57 34 12 13 14 11 13 17 16 42 48 49 51 56 66 73 78 81 90 99 94 96 97 90 84 87 84
63 53 34 30 31 23 19 19 19 25 51 56 49 50 68 91 75 62 49 10 10 11 12 13 18 40 45 49 53 54 58 65 72 82 82 84 91 98 94 100 95 90 87 81
60 91 92 86 40 26 28 27 18 15 22 30 32 39 26 33 32 24 13 12 15 17 16 17 38 44 47 50 53 57 66 72 74 79 87 86 94 96 99 98 97 90 88 83
45 49 55 61 34 35 38 22 19 14 14 17 30 27 22 20 27 36 34 30 27 22 32 43 50 51 54 54 60 66 73 74 78 81 86 87 95 99 100 99 97 92 90 96
48 60 55 62 49 65 32 38 29 16 16 15 15 15 30 48 43 42 60 62 62 57 54 53 52 52 54 58 66 74 77 77 80 82 84 88 94 98 100 100 99 100 100 99
45 63 67 70 51 37 32 59 38 33 29 49 56 63 63 58 51 61 72 66 64 61 58 56 55 57 60 67 74 78 79 78 82 83 87 91 97 100 100 100 100 100 100 100
45 55 97 62 86 63 95 78 54 36 48 91 70 85 94 87 85 81 88 83 76 64 59 58 56 59 64 70 76 80 80 80 84 91 95 98 99 100 100 100 100 100 100 100
73 71 85 85 81 81 95 72 50 74 98 94 81 90 100 100 99 96 78 72 72 70 56 53 53 54 59 65 73 80 82 83 92 96 99 100 100 100 100 100 100 100 100 100
90 87 72 78 81 88 96 65 94 100 98 97 96 96 98 86 74 70 66 65 60 55 53 52 51 53 56 62 70 77 84 91 96 99 100 100 100 100 100 99 100 100 100 100
84 95 98 96 94 100 100 100 100 100 100 100 100 94 70 69 65 63 60 58 54 55 55 56 56 57 60 64 69 79 90 97 100 100 100 99 100 100 100 100 100 100 100 100
71 94 92 94 84 76 100 97 99 100 100 98 96 83 74 68 64 62 62 62 61 61 62 63 65 66 68 70 73 83 95 100 100 100 100 99 100 100 99 99 99 100 100 100
86 91 81 90 84 69 70 100 97 97 92 77 64 66 65 65 67 68 69 70 70 71 71 71 73 75 76 77 82 90 97 98 100 99 99 100 100 100 100 98 98 100 100 100
60 82 90 92 99 97 94 94 68 71 65 63 60 64 64 65 69 67 74 78 81 81 81 79 79 82 91 91 87 93 100 97 98 98 99 100 99 98 98 98 99 98 100 98

GFSCGP_925_rhum_129.txt.gz
RH
18 24 39 27 18 15 17 20 21 17 14 16 15 23 23 20 18 17 14 12 12 17 17 14 13 15 18 22 25 27 29 29 29 67 76 93 90 85 81 80 75 80 80 84
23 26 20 16 20 21 20 20 20 16 15 16 16 15 19 16 14 13 12 12 12 11 14 11 17 23 27 31 33 37 44 45 44 39 50 75 80 93 86 86 80 79 71 81
18 17 13 17 19 19 19 23 25 23 18 15 14 16 20 17 14 13 12 9 11 11 13 22 33 38 30 44 41 44 45 51 51 47 43 38 76 88 96 100 91 81 78 76
12 11 9 12 14 16 21 18 20 22 21 27 17 30 19 18 19 16 13 10 12 12 21 25 32 42 49 46 44 41 42 49 59 57 51 43 47 84 97 100 90 81 72 81
13 10 9 10 12 12 16 14 19 24 29 31 27 33 26 19 20 17 14 12 11 14 26 29 36 47 45 42 45 48 50 49 52 65 72 70 70 76 83 96 90 70 74 81
12 8 7 11 14 16 14 15 19 26 30 40 31 36 32 26 22 18 14 12 11 21 29 32 30 49 50 45 44 43 49 56 59 53 54 73 88 85 90 94 96 92 79 90
15 12 9 15 25 23 27 51 60 53 47 48 31 40 34 24 21 19 18 32 25 30 34 36 37 41 45 48 47 47 47 58 68 68 67 70 78 92 85 84 92 96 85 95
27 30 17 15 18 23 32 64 94 89 69 50 37 47 33 22 19 18 17 34 33 36 35 37 36 38 40 46 49 52 52 58 62 75 75 71 75 83 91 89 89 91 91 83
31 25 18 17 18 18 28 47 67 93 78 91 54 37 27 23 24 22 19 33 42 47 44 40 35 36 35 50 51 51 57 56 59 68 71 80 70 75 85 89 85 97 90 83
36 47 24 21 28 25 37 48 79 84 96 89 60 45 48 34 58 63 51 44 46 50 37 30 34 37 39 46 50 54 54 58 60 61 70 76 82 84 80 90 100 93 92 88
32 39 37 28 32 38 38 54 67 85 80 74 91 60 86 92 76 73 64 58 38 33 26 22 27 28 40 40 48 57 62 64 65 68 70 71 78 86 90 91 94 100 90 88
42 53 59 55 38 39 39 69 99 97 93 85 86 85 73 87 77 65 71 43 43 16 16 14 14 25 30 48 59 60 62 65 68 74 70 75 80 88 94 92 90 97 97 91
55 72 88 50 52 43 59 47 46 91 97 93 98 86 52 71 92 63 66 47 18 15 14 15 18 53 58 59 57 63 63 68 70 69 68 72 83 88 97 97 92 90 100 96
67 71 76 84 52 43 82 63 32 55 82 75 69 58 64 74 87 87 61 54 47 14 14 18 53 58 59 59 62 65 75 73 74 76 78 80 87 90 90 97 98 94 99 100
67 90 80 66 59 51 47 39 27 32 37 72 48 49 48 55 78 83 68 56 40 24 30 41 55 60 58 61 68 72 76 77 78 80 84 87 90 91 90 91 100 98 100 100
74 87 87 75 57 56 42 36 32 30 28 26 34 36 35 48 64 72 62 57 63 62 58 57 56 57 61 65 72 79 80 80 81 81 83 83 89 91 92 97 99 98 100 100
98 72 73 72 48 52 56 55 48 46 26 35 47 81 60 63 59 77 78 70 68 64 62 62 61 62 67 73 77 81 82 80 81 82 84 84 88 91 92 93 94 100 100 99
74 76 84 80 69 75 62 67 72 76 90 87 74 72 70 69 67 79 77 79 75 65 63 63 62 65 70 73 77 79 82 84 83 82 87 90 92 94 97 98 97 100 100 98
52 75 95 90 83 54 76 72 92 95 93 96 90 74 79 77 71 88 76 78 77 71 64 61 57 62 64 70 71 76 82 83 83 86 90 93 96 97 98 99 100 100 100 100
59 76 97 96 94 92 87 73 48 65 96 94 98 87 90 82 86 94 88 75 68 65 62 55 53 57 64 67 71 76 81 84 87 91 94 97 98 100 99 100 100 100 100 100
91 88 93 90 96 95 88 68 54 79 95 100 100 98 100 99 100 97 68 65 59 55 56 58 58 61 63 68 71 76 82 85 89 95 99 99 100 100 100 100 100 100 99 100
97 100 97 94 91 93 96 69 90 98 99 100 100 100 100 97 78 66 62 62 59 62 62 64 66 67 70 73 76 81 85 90 94 99 100 100 100 100 100 100 100 100 98 100
92 99 99 98 97 100 100 100 100 100 100 100 100 100 96 81 71 66 67 66 65 68 69 71 72 73 74 78 81 86 92 95 99 100 100 100 100 99 100 100 100 100 100 99
91 97 97 93 96 88 100 100 100 100 100 92 70 72 69 75 71 74 73 74 74 76 74 75 76 77 78 87 90 92 97 100 100 100 100 99 100 99 99 100 100 99 100 99
93 90 85 92 91 77 96 100 98 85 69 70 61 65 72 72 75 71 76 75 77 79 78 77 79 81 84 93 97 96 98 98 100 100 100 98 98 98 98 100 100 100 100 99
76 89 98 98 100 100 100 90 69 66 70 70 63 67 67 74 75 75 81 80 82 86 90 91 90 91 93 95 97 99 98 98 100 99 99 98 99 98 98 97 99 99 99 97

GFSCGP_925_rhum_132.txt.gz
RH
19 26 35 35 28 20 18 20 22 18 16 19 19 18 16 14 21 18 21 19 16 15 11 10 16 18 24 28 31 61 78 88 88 80 96 96 97 93 89 82 79 80 81 81
17 25 22 20 27 28 22 21 22 18 17 21 21 20 15 14 20 16 15 17 15 14 11 12 20 33 28 32 34 38 39 45 70 66 64 61 73 82 85 88 76 81 79 74
15 14 11 9 12 14 16 25 27 27 22 22 21 23 19 15 18 16 16 16 15 13 12 28 42 47 54 53 52 52 54 58 59 56 52 71 86 87 97 98 88 78 82 83
15 12 10 12 12 12 16 15 17 19 22 28 19 35 23 22 21 19 18 16 17 14 19 33 42 62 58 55 49 49 49 52 60 63 61 56 82 95 89 85 97 86 81 71
21 16 14 14 11 12 22 26 25 25 24 32 25 42 28 22 25 23 20 17 17 14 31 34 52 58 52 51 53 52 52 52 54 63 70 75 75 77 74 94 100 86 66 63
18 11 9 11 17 19 23 35 38 35 32 44 31 33 38 25 26 23 18 17 18 15 35 45 54 56 60 52 45 43 48 55 55 67 65 64 77 90 89 93 100 97 64 66
20 17 15 17 22 21 22 52 82 70 52 41 25 33 30 26 26 24 24 22 21 24 34 51 60 62 59 54 52 50 55 67 74 75 75 72 73 81 95 89 85 95 81 89
32 31 24 20 24 28 30 55 83 97 73 83 60 58 34 36 58 61 57 22 29 39 38 54 55 58 62 58 55 53 52 56 55 60 71 81 80 77 80 87 98 85 76 75
46 37 27 24 24 26 36 42 42 72 62 77 60 52 35 71 79 74 59 42 43 48 46 45 49 57 62 60 56 53 55 58 56 60 63 62 62 75 83 82 86 89 88 84
36 49 29 26 25 24 32 34 67 80 86 80 84 86 94 78 92 88 81 78 64 63 54 54 52 61 61 62 62 58 58 62 61 58 62 62 61 67 76 85 87 90 94 95
45 47 44 35 36 51 58 56 62 70 87 80 74 80 82 89 90 95 89 76 76 58 71 64 48 56 64 69 72 69 63 63 69 66 63 62 65 67 77 95 96 92 91 100
51 64 72 53 41 49 50 63 93 98 92 96 91 85 67 78 77 81 96 94 76 75 61 67 67 64 70 72 74 74 72 71 70 68 66 69 70 70 71 76 91 98 94 96
60 74 92 50 41 42 47 45 48 72 95 85 95 64 55 67 80 91 91 82 72 68 63 49 70 69 70 74 80 80 76 76 71 70 75 76 78 81 82 76 80 88 98 96
62 76 74 79 76 66 72 47 44 47 78 61 59 65 58 78 91 95 82 74 74 61 55 66 66 69 73 76 79 82 83 82 79 80 81 85 88 87 91 81 79 94 98 100
62 90 73 71 64 58 59 57 45 44 43 61 41 50 67 73 74 81 75 79 69 68 66 66 68 72 70 74 79 81 82 84 86 86 86 87 88 89 85 85 82 81 88 99
75 93 89 85 59 50 50 80 79 86 88 64 65 86 68 67 63 74 79 73 72 69 64 63 62 64 68 71 75 79 83 88 86 84 85 86 85 86 90 91 91 86 91 96
96 92 83 77 56 61 76 90 86 94 94 94 87 90 76 77 83 86 84 81 80 72 69 63 63 67 69 75 75 78 82 82 84 86 86 87 89 92 94 96 99 99 98 93
83 76 88 91 75 82 76 57 73 88 86 87 89 80 80 84 82 86 77 79 76 76 67 61 59 69 74 75 76 75 77 78 85 85 87 89 92 94 97 99 98 100 100 100
92 77 93 97 86 60 55 64 79 86 88 85 88 84 84 85 71 90 72 64 62 59 60 61 62 69 73 76 77 76 78 80 82 83 88 93 97 97 97 99 100 100 100 100
66 78 96 93 95 92 86 72 63 61 94 90 97 95 98 90 89 97 80 61 60 62 66 67 68 70 74 77 79 80 81 83 85 89 93 98 99 99 99 100 100 100 100 100
93 93 99 100 95 95 88 83 59 75 94 97 100 100 100 100 100 97 68 67 67 69 70 72 73 74 76 79 82 84 85 87 92 94 98 100 98 100 100 100 100 100 100 99
100 99 100 95 91 89 94 70 85 98 100 100 100 100 100 100 98 74 69 74 72 76 75 74 76 78 78 82 86 88 89 92 97 100 100 98 100 100 100 100 99 98 100 100
85 94 96 98 98 100 100 100 100 100 100 100 100 100 87 86 76 77 79 80 78 76 77 76 74 75 79 83 94 96 92 98 100 100 100 100 100 100 100 100 100 99 100 100
90 90 99 94 95 99 100 100 97 100 100 96 69 72 75 82 80 80 76 76 78 78 76 86 80 81 84 89 95 98 99 100 100 100 100 100 100 100 98 99 100 100 100 100
86 94 91 94 94 93 99 97 99 83 83 72 68 70 75 75 78 78 81 80 83 85 88 94 92 89 91 95 98 100 99 100 100 100 100 100 100 100 100 96 100 100 100 100
85 88 94 96 98 100 99 92 76 68 78 70 74 77 72 75 81 79 85 90 86 85 94 92 93 95 97 99 98 100 94 100 100 100 100 100 100 99 96 97 96 99 100 100

GFSCGP_925_rhum_138.txt.gz
RH
16 28 30 25 28 30 34 33 33 29 24 22 24 21 16 16 20 22 22 20 21 19 16 14 12 11 12 14 14 12 26 68 99 99 100 100 99 100 100 99 98 98 97 99
14 12 16 12 11 13 16 29 28 26 23 21 24 21 16 16 20 20 20 21 20 20 19 18 15 15 19 17 20 30 24 74 97 98 99 99 100 100 100 100 92 84 84 86
15 12 14 14 16 18 15 20 30 36 27 24 25 25 20 18 17 17 19 21 22 22 22 18 16 22 38 38 29 37 36 65 100 99 99 99 100 100 100 99 100 98 98 94
17 14 16 16 20 23 23 27 34 43 45 46 24 37 18 17 22 32 48 69 67 60 55 44 26 25 49 53 52 61 64 98 96 100 100 100 98 96 84 77 57 61 69 77
18 18 18 26 24 24 29 28 28 37 49 43 28 41 21 26 78 79 73 72 69 65 60 55 46 24 46 72 81 88 98 100 100 100 99 94 82 72 75 79 82 88 94 99
18 16 20 19 21 24 25 25 34 45 52 59 49 52 58 86 87 83 73 75 69 72 69 66 51 53 73 74 78 90 82 83 79 76 78 71 76 79 81 76 86 98 100 95
27 26 22 23 27 28 30 36 43 47 64 43 36 43 56 69 69 83 80 78 76 73 75 78 80 78 77 81 88 89 90 90 74 72 71 80 70 70 74 81 87 99 98 98
39 35 29 25 27 33 35 45 56 63 56 52 35 45 30 60 59 67 67 72 74 78 74 78 88 80 84 88 87 86 89 90 82 75 70 71 76 77 82 87 86 88 91 88
45 44 29 25 26 28 35 39 39 68 54 65 45 44 40 48 41 60 67 75 79 78 71 78 94 95 94 93 89 84 79 73 73 75 67 61 75 74 84 86 90 93 97 94
44 48 33 30 30 31 46 46 67 78 64 76 64 56 91 60 58 72 72 82 78 81 82 86 93 88 91 88 86 83 84 88 82 72 74 68 73 78 76 76 85 96 100 100
54 50 46 40 39 44 66 72 77 78 84 83 74 65 82 72 84 89 82 89 83 87 90 88 92 95 87 82 80 81 86 89 83 77 71 68 68 67 71 72 71 73 81 92
53 70 83 57 46 42 53 74 91 99 90 94 97 80 76 86 80 79 95 95 89 85 92 94 93 98 99 85 80 80 84 89 89 77 71 62 62 64 70 70 66 68 69 72
54 73 90 49 46 50 55 54 56 83 98 93 96 69 71 77 80 95 97 95 95 95 96 98 96 100 100 97 88 84 80 80 86 86 84 76 74 74 75 77 76 77 76 71
61 72 68 71 53 64 75 70 68 78 94 73 76 66 76 86 96 98 94 92 94 91 93 97 99 100 100 100 98 81 82 77 79 85 83 78 80 82 83 85 83 79 82 85
67 87 79 72 68 69 71 77 80 95 81 90 82 91 89 83 94 97 86 74 93 84 74 73 82 88 92 82 83 78 79 81 84 83 82 82 84 84 88 89 90 91 94 92
82 92 94 87 73 80 81 76 78 84 85 85 87 94 68 63 65 79 77 68 73 82 68 67 63 66 74 77 74 77 81 83 85 85 83 81 79 80 93 97 99 99 100 100
92 90 88 76 69 72 87 80 79 81 96 96 92 92 72 74 86 94 83 74 74 71 69 68 66 67 71 77 78 80 84 84 86 85 86 86 87 92 99 99 99 99 100 100
94 92 91 93 80 92 79 61 64 85 84 82 78 75 72 74 87 95 85 80 79 75 74 72 73 73 75 76 83 85 85 86 86 87 92 95 99 98 97 96 97 99 99 100
84 86 95 97 97 73 83 69 81 82 94 86 86 78 74 78 88 98 82 76 78 78 76 78 77 73 78 78 82 90 89 88 88 92 98 98 97 96 97 98 99 100 100 100
78 81 94 96 98 95 86 82 76 78 94 90 88 93 90 86 84 93 89 79 79 81 78 79 82 76 79 82 87 91 91 90 90 96 98 98 98 97 98 98 100 100 100 100
96 96 95 88 100 84 86 91 76 90 93 98 98 98 98 97 100 97 92 76 69 71 81 79 85 84 84 86 91 94 92 92 97 98 97 97 99 99 98 100 100 100 100 100
87 94 99 95 98 81 84 80 80 93 93 100 100 100 95 88 80 77 72 73 76 77 84 83 84 90 86 88 95 94 91 96 99 97 97 98 100 100 99 100 99 99 99 99
95 86 94 88 86 87 89 89 93 99 100 100 98 90 83 84 80 78 78 80 82 82 83 86 89 89 86 90 96 99 97 98 99 99 98 97 99 100 97 100 100 98 99 98
84 74 95 92 89 91 95 86 93 94 97 86 79 81 80 90 80 75 84 93 91 84 87 93 88 89 89 94 96 100 99 100 100 100 97 96 100 97 94 93 97 100 100 97
80 84 86 94 89 85 93 94 93 88 79 80 79 82 85 86 88 87 89 90 94 92 94 96 90 89 93 99 99 100 100 100 99 100 98 97 98 96 95 93 93 100 97 99
91 92 96 88 82 85 91 89 81 83 83 81 83 83 84 87 89 88 81 89 95 95 97 97 95 96 99 99 99 100 100 100 100 100 100 100 100 99 99 99 93 75 94 100

GFSCGP_925_rhum_144.txt.gz
RH
14 15 15 14 13 14 14 14 12 9 10 14 12 9 7 8 8 11 18 21 22 23 20 22 26 28 31 33 32 28 28 28 31 36 56 60 62 66 69 66 67 74 86 98
10 11 12 10 10 10 9 11 10 10 10 13 10 11 8 10 22 24 21 20 20 20 21 22 25 29 34 34 36 35 30 25 25 25 31 48 56 60 61 67 73 75 84 92
10 12 11 11 12 11 13 16 14 15 11 8 11 5 10 18 21 19 20 22 23 26 28 30 33 38 40 40 42 40 39 31 28 30 28 39 57 66 74 84 86 84 84 85
11 12 12 12 14 15 12 17 17 14 12 9 9 9 6 17 20 21 24 26 28 33 35 37 45 55 61 56 50 48 46 40 35 34 41 36 53 64 76 78 90 90 90 89
14 14 15 15 17 16 17 16 15 13 13 12 10 15 13 24 27 22 26 30 32 36 42 52 57 66 73 79 86 62 54 53 54 54 52 48 53 62 70 91 97 95 95 93
16 15 15 17 19 18 17 16 13 12 16 14 21 20 9 17 18 27 32 37 49 65 69 65 67 67 74 83 89 97 96 93 98 83 67 65 67 73 79 84 99 98 99 99
19 19 17 17 16 18 14 13 9 10 17 14 22 18 12 13 23 37 47 65 78 81 81 83 84 83 82 90 91 92 98 94 98 100 100 92 79 76 79 81 84 93 94 92
16 24 19 18 16 16 19 17 15 21 12 15 14 17 11 15 30 34 54 78 71 84 89 92 92 91 93 98 97 95 90 96 96 96 97 99 100 92 92 82 79 72 79 93
19 20 20 20 19 16 23 21 25 30 28 31 15 15 13 23 36 37 68 78 81 74 74 81 82 86 92 99 100 100 91 93 98 90 85 89 94 99 97 99 98 100 100 100
26 21 22 24 21 26 21 26 40 40 58 36 20 25 25 43 56 47 85 95 84 82 78 76 80 92 96 99 100 100 94 85 99 96 89 83 79 82 85 84 85 88 92 94
22 20 26 23 21 23 37 38 37 42 39 37 34 27 51 58 62 78 83 81 78 78 87 87 96 97 96 97 100 100 100 92 90 94 94 84 78 76 75 76 76 77 78 80
27 24 21 21 27 26 26 37 53 56 57 52 63 37 47 47 50 74 84 76 69 68 70 77 88 93 98 98 99 99 99 100 90 98 100 90 77 74 78 76 76 78 76 78
32 28 30 36 37 35 37 38 42 56 66 57 61 34 37 42 48 58 77 64 59 55 55 64 66 92 93 98 99 99 99 99 98 83 89 93 92 82 80 80 80 80 79 79
34 26 24 20 29 32 44 38 36 43 56 39 36 33 34 57 62 65 69 60 54 54 53 57 61 73 75 80 97 99 100 99 98 81 75 77 80 80 83 82 82 85 83 82
38 42 34 33 33 36 38 36 37 44 41 52 38 41 46 61 71 66 63 55 54 54 53 53 55 56 57 64 70 87 97 94 98 81 76 76 80 76 78 81 80 82 85 84
49 62 63 59 44 46 49 43 44 43 42 42 43 45 62 42 44 63 55 59 58 56 52 50 49 55 55 60 64 73 90 91 85 80 73 74 75 74 76 78 79 80 83 83
58 52 55 44 44 44 54 48 45 44 58 74 67 57 47 52 50 74 68 61 61 58 52 52 52 56 58 61 66 72 80 85 86 82 77 75 77 76 76 75 76 81 84 86
58 56 54 50 49 61 64 43 44 55 53 55 58 53 50 51 50 70 63 64 60 52 52 51 53 57 59 60 66 74 74 75 80 82 84 82 81 78 80 78 77 78 85 88
47 48 58 65 49 41 57 52 55 61 61 58 62 53 50 49 51 89 66 55 56 51 52 54 55 58 57 59 65 71 71 73 74 77 78 75 76 74 75 78 81 82 82 83
55 56 63 60 61 54 58 56 52 58 73 68 64 63 65 61 63 62 64 54 54 53 54 56 57 56 57 60 65 65 67 70 74 78 76 72 73 70 69 73 75 77 77 78
73 75 75 58 66 56 54 54 54 75 89 67 74 77 83 86 80 72 61 57 57 57 55 58 58 56 57 61 65 63 66 72 78 77 73 71 71 71 70 72 72 74 77 81
75 75 72 66 78 69 51 59 69 79 68 74 77 78 84 74 65 56 51 52 53 54 54 55 58 57 58 62 64 63 67 75 80 77 73 72 74 74 73 76 76 79 80 83
82 84 69 64 66 74 64 72 77 75 75 73 70 68 65 62 57 51 50 49 51 55 53 55 59 58 58 62 64 66 72 76 82 82 83 84 82 81 83 85 84 84 89 86
69 61 83 83 75 65 76 72 72 70 73 70 64 61 58 60 52 52 48 48 50 51 53 56 57 57 58 63 65 69 76 81 81 86 90 90 89 90 90 88 88 85 90 88
60 62 71 77 74 70 76 69 71 71 70 65 60 58 58 54 50 50 47 48 53 56 57 59 60 60 62 65 68 73 80 83 84 86 86 88 88 88 88 87 89 89 90 96
46 55 71 58 86 83 80 89 71 73 66 58 56 52 52 52 49 50 49 54 63 68 68 68 69 70 71 71 72 77 83 88 88 84 84 87 88 88 88 87 84 85 88 89